Valparaiso, IN

7:30 AM CST on December 14, 2017 (GMT -0600)
Porter County Municipal

Weather History for KVPZ - June, 2014

Change the Weather History Date:

Wednesday, June 11, 2014

  Actual Average Record
Temperature  
Mean Temperature 69 °F 68 °F  
Max Temperature 78 °F 79 °F 95 °F (2016)
Min Temperature 60 °F 57 °F 51 °F (2011)
Degree Days  
Heating Degree Days 0 2  
Month to date heating degree days 14 28  
Since 1 June heating degree days 14 28  
Since 1 July heating degree days 7205 6307  
Cooling Degree Days 4 5  
Month to date cooling degree days 37 42  
Year to date cooling degree days 110 89  
Since 1 June cooling degree days 37 42  
Growing Degree Days 19 (Base 50)    
Moisture  
Dew Point 62 °F    
Average Humidity 89    
Maximum Humidity 97    
Minimum Humidity 62    
Precipitation  
Precipitation 0.28 in 0.13 in 1.49 in (2009)
Month to date precipitation 2.29 1.48  
Year to date precipitation 11.22 14.46  
Sea Level Pressure  
Sea Level Pressure 29.71 in    
Wind  
Wind Speed 8 mph (SSW)    
Max Wind Speed 17 mph    
Max Gust Speed 22 mph    
Visibility 8 miles    
Events Rain    
T = Trace of Precipitation, MM = Missing Value Source: NWS Daily Summary

Daily Weather History Graph

Daily Weather History Graph

Search for Another Location

Airport or City:

Trip Planner

Search our weather history database for the weather conditions in past years. The results will help you decide how hot, cold, wet, or windy it might be!

Date:

Astronomy

Jun. 11, 2014 Rise Set
Actual Time 5:13 AM CDT 8:21 PM CDT
Civil Twilight 4:40 AM CDT 8:55 PM CDT
Nautical Twilight 3:56 AM CDT 9:38 PM CDT
Astronomical Twilight 3:05 AM CDT 10:30 PM CDT
Moon 6:49 PM CDT (6/11) 4:04 AM CDT (6/11)
Length of Visible Light 16h 15m
Length of Day
15h 07m
Waxing Gibbous, 97% of the Moon is Illuminated
Jun 11
Waxing Gibbous
Jun 12
Full
Jun 19
Last Quarter
Jun 27
New
Jul 5
First Quarter

Hourly Weather History & Observations

Time (CDT) Temp. Dew Point Humidity Pressure Visibility Wind Dir Wind Speed Gust Speed Precip Events Conditions
12:53 AM 64.9 °F 63.0 °F 93% 29.71 in 8.0 mi East 10.4 mph - 0.02 in Rain Light Rain
1:53 AM 64.9 °F 64.0 °F 97% 29.68 in 2.5 mi East 11.5 mph - 0.04 in Rain Heavy Rain
2:08 AM 64.9 °F 64.0 °F 97% 29.68 in 1.5 mi East 12.7 mph - 0.17 in Rain Heavy Rain
2:22 AM 64.9 °F 64.0 °F 97% 29.68 in 3.0 mi ESE 9.2 mph - 0.21 in Rain Light Rain
2:53 AM 66.0 °F 64.0 °F 93% 29.67 in 7.0 mi SE 9.2 mph - 0.21 in   Overcast
3:05 AM 66.0 °F 64.0 °F 93% 29.68 in 8.0 mi SSE 8.1 mph - N/A   Overcast
3:24 AM 66.0 °F 63.0 °F 90% 29.68 in 10.0 mi South 10.4 mph - 0.01 in   Overcast
3:53 AM 64.9 °F 64.0 °F 97% 29.68 in 10.0 mi South 8.1 mph - 0.01 in   Overcast
4:13 AM 64.9 °F 63.0 °F 93% 29.69 in 10.0 mi South 8.1 mph - N/A   Overcast
4:53 AM 64.9 °F 63.0 °F 93% 29.68 in 8.0 mi SSW 6.9 mph - N/A   Overcast
5:53 AM 64.9 °F 64.0 °F 97% 29.70 in 8.0 mi South 6.9 mph - N/A   Overcast
6:53 AM 64.9 °F 64.0 °F 97% 29.71 in 10.0 mi South 9.2 mph - N/A   Overcast
7:34 AM 64.9 °F 64.0 °F 97% 29.72 in 4.0 mi SSW 9.2 mph - 0.00 in Rain Light Rain
7:53 AM 64.9 °F 64.0 °F 97% 29.72 in 6.0 mi SSW 9.2 mph - 0.00 in   Overcast
8:08 AM 66.0 °F 64.0 °F 93% 29.72 in 7.0 mi South 8.1 mph - N/A   Overcast
8:32 AM 66.9 °F 64.0 °F 90% 29.72 in 9.0 mi South 9.2 mph - N/A   Overcast
8:53 AM 68.0 °F 64.0 °F 87% 29.71 in 10.0 mi SSW 11.5 mph - N/A   Overcast
9:47 AM 69.8 °F 64.4 °F 83% 29.72 in 10.0 mi SSW 8.1 mph - N/A   Overcast
9:53 AM 70.0 °F 64.9 °F 84% 29.71 in 10.0 mi SW 8.1 mph - N/A   Overcast
10:29 AM 70.0 °F 63.0 °F 78% 29.72 in 10.0 mi SW 10.4 mph - N/A   Overcast
10:51 AM 69.8 °F 64.4 °F 83% 29.72 in 10.0 mi South 6.9 mph - 0.00 in   Mostly Cloudy
10:53 AM 70.0 °F 64.9 °F 84% 29.71 in 10.0 mi South 9.2 mph - 0.00 in   Mostly Cloudy
12:53 PM 75.0 °F 63.0 °F 66% 29.69 in 10.0 mi SSW 11.5 mph - N/A   Scattered Clouds
1:53 PM 78.1 °F 64.0 °F 62% 29.69 in 10.0 mi SW 11.5 mph - N/A   Scattered Clouds
3:35 PM 73.0 °F 64.9 °F 76% 29.69 in 10.0 mi NW 11.5 mph - N/A   Mostly Cloudy
3:53 PM 73.0 °F 64.9 °F 76% 29.69 in 10.0 mi West 9.2 mph - N/A   Overcast
4:53 PM 71.1 °F 64.0 °F 78% 29.70 in 10.0 mi Variable 5.8 mph - N/A   Overcast
5:50 PM 66.2 °F 60.8 °F 83% 29.71 in 9.0 mi North 5.8 mph - N/A   Mostly Cloudy
5:53 PM 64.9 °F 61.0 °F 87% 29.71 in 8.0 mi North 9.2 mph - N/A   Mostly Cloudy
6:33 PM 63.0 °F 59.0 °F 87% 29.72 in 7.0 mi North 6.9 mph - N/A   Scattered Clouds
6:46 PM 62.1 °F 59.0 °F 90% 29.72 in 5.0 mi North 5.8 mph - N/A   Mostly Cloudy
6:53 PM 63.0 °F 59.0 °F 87% 29.71 in 5.0 mi Variable 5.8 mph - N/A   Mostly Cloudy
7:01 PM 62.1 °F 57.9 °F 86% 29.72 in 7.0 mi Variable 4.6 mph - N/A   Mostly Cloudy
7:43 PM 61.0 °F 57.9 °F 90% 29.72 in 9.0 mi Calm Calm - N/A   Mostly Cloudy
7:53 PM 61.0 °F 57.9 °F 90% 29.72 in 9.0 mi NNW 4.6 mph - N/A   Mostly Cloudy
8:13 PM 61.0 °F 57.9 °F 90% 29.73 in 9.0 mi North 3.5 mph - N/A   Overcast
8:41 PM 62.1 °F 57.9 °F 86% 29.74 in 10.0 mi NNW 3.5 mph - N/A   Overcast
8:53 PM 62.1 °F 57.9 °F 86% 29.74 in 10.0 mi NNW 3.5 mph - N/A   Overcast
9:40 PM 61.0 °F 59.0 °F 93% 29.75 in 2.5 mi Calm Calm - 0.01 in Rain Light Rain
9:53 PM 60.1 °F 59.0 °F 96% 29.75 in 2.5 mi North 3.5 mph - 0.01 in Rain Light Rain
10:24 PM 60.1 °F 59.0 °F 96% 29.75 in 3.0 mi Calm Calm - 0.00 in   Overcast
10:42 PM 60.1 °F 59.0 °F 96% 29.76 in 4.0 mi NNW 3.5 mph - 0.01 in   Overcast
10:53 PM 61.0 °F 59.0 °F 93% 29.75 in 4.0 mi North 3.5 mph - 0.01 in   Overcast
11:53 PM 60.1 °F 59.0 °F 96% 29.76 in 3.0 mi Calm Calm - 0.00 in   Overcast